Regional Weather Roundup
Issued by NWS

Home | Current Version | Previous Version | Text Only | Print | Product List | Glossary On
Versions: 1 2 3 4 5 6 7 8 9 10 11 12 13 14 15 16 17 18 19 20 21 22 23 24 25 26 27 28 29 30 31 32 33 34 35 36 37 38 39 40 41 42 43 44 45 46 47 48 49 50
000
ASHW40 PHFO 310732
RWRHI

WEATHER ROUNDUP FOR HAWAII
NATIONAL WEATHER SERVICE HONOLULU HI
900 PM HST SAT JUL 30 2016

THIS IS AN AUTOMATED REPORT THAT HAS NOT BEEN QUALITY CONTROLLED.

NOTE..."FAIR" INDICATES FEW OR NO CLOUDS BELOW 12,000 FEET WITH NO
SIGNIFICANT WEATHER AND/OR OBSTRUCTIONS TO VISIBILITY.

* - THESE SITES REPORT LIMITED FIELDS

HIZ001>004-310800-
KAUAI-NIIHAU-

CITY           SKY/WX    TMP DP  RH WIND       PRES   REMARKS
LIHUE APT      PTCLDY    77  72  84 NE17      30.01R
PORT ALLEN*      N/A     79 N/A N/A NE15        N/A
POIPU*           N/A     79 N/A N/A NE8G21      N/A
PRINCEVILLE*     N/A     77 N/A N/A E9G16       N/A
KOKOLE POINT*  NOT AVBL
MOLOAA DAIRY*    N/A     75  72  88 E3G12       N/A
WAIMEA HTS*    NOT AVBL
PUU OPAE*      NOT AVBL
PUU LUA*       NOT AVBL
MAKAHA RIDGE*    N/A     70  66  88 NE5         N/A
$$

HIZ005>011-310800-
OAHU-

CITY           SKY/WX    TMP DP  RH WIND       PRES   REMARKS
HONOLULU       PTCLDY    80  67  64 NE14      29.97R
KALAELOA       CLEAR     78  67  68 NE3       29.98R
KANEOHE MCB    PTCLDY    79  70  74 E9        29.96R
WHEELER FIELD  FAIR      75  67  75 E6        30.00
BELLOWS*         N/A    N/A N/A N/A NE18        N/A
KAHUKU*          N/A    N/A N/A N/A VRB1        N/A
WHEELER*       NOT AVBL
WAIANAE HARBOR NOT AVBL
DILLINGHAM*      N/A     75  68  78 MISG        N/A
KAHUKU TRN*      N/A     84  79  84 W8G20       N/A  HX  96
KAWAILOA*        N/A     72  66  83 E12         N/A
KII*             N/A     79  72  78 E16         N/A
MAKUA RANGE*     N/A     77  68  73 NW6G15      N/A
OAHU FOREST NW NOT AVBL
SCHOFIELD BRK*   N/A     82  75  78 CALM        N/A
SCHOFIELD S*   NOT AVBL
WAIANAE VLY*   NOT AVBL
KUAOKALA*      NOT AVBL
HONOULIUULI*   NOT AVBL
MOKUOLOE IS*   NOT AVBL
PALEHUA*       NOT AVBL
WAIAWA PHB*    NOT AVBL
$$

HIZ012>013-310800-
MOLOKAI-

CITY           SKY/WX    TMP DP  RH WIND       PRES   REMARKS
MOLOKAI AIRPT  CLOUDY    78  69  73 NE9G18    29.99R
KALAUPAPA      NOT AVBL
MAKAPULAPAI*     N/A     75  70  83 E17G26      N/A
MOLOKAI 1*     NOT AVBL
PUU ALII*        N/A     61  61 100 N2G10       N/A
$$

HIZ016-310800-
KAHOOLAWE-

CITY           SKY/WX    TMP DP  RH WIND       PRES   REMARKS
KAHOOLAWE*       N/A     72 N/A N/A NE1         N/A
HAKIOAWA*        N/A     74  69  85 MISG        N/A
HONOKANAIA*      N/A     80  68  67 NE12G24   29.89R
KANELOA*         N/A     75  66  73 E15G25    30.02R
KEALIALALO*    NOT AVBL
LUA MAKIKA*    NOT AVBL
$$

HIZ014>015-310800-
LANAI-

CITY           SKY/WX    TMP DP  RH WIND       PRES   REMARKS
LANAI CITY     FAIR      71  66  84 E6        30.03R
LANAI 1*       NOT AVBL
$$

HIZ017>028-310800-
MAUI-

CITY           SKY/WX    TMP DP  RH WIND       PRES   REMARKS
KAHULUI        PTCLDY    77  69  76 NE15      29.97R
KAPALUA-W MAUI NOT AVBL
HANA AIRPORT     N/A     77  72  83 E2        30.02R
HANA*            N/A     79 N/A N/A NE9         N/A
HALEAKALA SUMM   N/A     48   9  20 S3G15       N/A
MAALAEA BAY*     N/A     79 N/A N/A N14G23      N/A
HALEAKALA*     NOT AVBL
KAUPO GAP*     NOT AVBL
KULA 1*          N/A     52  52 100 E1          N/A
$$

HIZ023>026-310800-
BIG ISLAND OF HAWAII COAST AND LOWER SLOPES-

CITY           SKY/WX    TMP DP  RH WIND       PRES   REMARKS
KAILUA KONA    PTCLDY    82  72  71 SW8       29.94R
HILO           MOCLDY    79  71  76 CALM      29.98R
HONOKAA*         N/A     72 N/A N/A VRB1        N/A
KAWAIHAE MWT*    N/A     82 N/A N/A W7          N/A
KAWAIHAE*        N/A     81 N/A N/A W7        29.95R
SOUTH POINT*     N/A     72 N/A N/A NW8         N/A
UPOLU AIRPORT*   N/A    N/A N/A N/A E14G22      N/A
KAMUELA*       MOSUNNY   66  63  88 NE12      30.09R
HAKALAU*         N/A     48  48 100 SW3         N/A
KALOKO-HONOKO*   N/A     81  70  69 SW5       29.94R
PALI 2*          N/A     68  57  68 S7G16       N/A
KEALAKOMO*       N/A     81  64  57 N15G25      N/A
KAUPULEHU*     NOT AVBL
KAPAPALA*        N/A     65  60  84 N3          N/A
LOWER KAHUKU*    N/A     63  57  82 N2G8        N/A
PUHE CS*         N/A     81  70  69 SW2         N/A
PUHO CS*       NOT AVBL
PTA KEAMUKU*     N/A     64  59  82 CALM        N/A
WAIKOLOA*      NOT AVBL
$$

HIZ027>028-310800-
BIG ISLAND OF HAWAII INTERIOR AND SUMMMITS-

CITY           SKY/WX    TMP DP  RH WIND       PRES   REMARKS
BRADSHAW FIELD CLEAR     56  46  70 SE6       30.29S
MK VISITOR CEN   N/A     52  16  24 NE3         N/A
MAUNA KEA*       N/A     37  18  44 NW10        N/A
MAUNA LOA*       N/A    N/A N/A N/A MISG        N/A
MAUNA LOA 1*   NOT AVBL
PTA KIPUKA*      N/A     72  72 100 S2          N/A
PTA RANGE 17*    N/A     70  59  68 SE12G20     N/A
PTA WEST*        N/A     63  55  77 S7G15       N/A
NENE CABIN*      N/A     52  48  87 E7G13       N/A
AHUMOA*        NOT AVBL
PTA PORTABLE*  NOT AVBL
PUU MALI*        N/A     55  54  94 E1          N/A
$$

HIC003-310800-
NORTHWEST ISLANDS-

CITY           SKY/WX    TMP DP  RH WIND       PRES   REMARKS
MIDWAY ISLAND  PTCLDY    81  73  78 E8        30.16R
MIDWAY NOS*      N/A     81 N/A N/A MISG      30.14S
FRENCH FRIGATE NOT AVBL
$$

PHZ110>124-180-310800-
BUOY REPORTS

STATION/POSITION TIME  TEMP    WIND        PRES    WAVE   SWELL
                       AIR SEA DIR/SP/G            HT/PER HT/DIR
                 (UTC) (F)     (DEG/KT/KT) (MB)    (FT/S) (FT/D)
BUOY 51001       NOT AVBL
BUOY 51101       0650   78 79   60/ 14/ 17 1017.2R   7/ 8   5/ 90
BUOY 51100       NOT AVBL
BUOY 51002       0650   81 82   60/ 12/ 14 1012.7R   7/ 9   7
BUOY 51003       0650   79 82   80/ 14/ 16 1013.6R   7/ 9   7/ 80
BUOY 51004       0650   80 81   60/ 12/ 16 1013.5R   6/ 9   5/ 80
BARBERS PT BUOY  NOT AVBL
WAIMEA BAY BUOY  0704      80                N/A     5/ 9   2/ 50
KAILUA BAY BUOY  0711      80                N/A     7/10   2/ 90
LANAI BUOY       0715      80                N/A     2/17   2/210
BARBERS PT 2     NOT AVBL
PAUWELA MAUI     0709      80                N/A     6/ 9   2/ 50
HILO             0712      80                N/A     6/ 8   2/ 60
KANEOHE BAY BUOY 0706      79                N/A     7/ 9   2/ 40
HANALEI KAUAI    NOT AVBL
KAHULUI HARBOR   0700   78 81   20/ 13/ 18 1014.9R
HONOLULU HARBOR  0700   80 80   50/  6/ 10 1015.5R
KILO NALU        NOT AVBL
HILO HARBOR      0700   77 81  280/  3/  5 1014.9R
MOKUOLOE         0600   79 83   80/ 11/ 15 1015.0R
NAWILIWILI       0700      81                N/A
WHOTS BUOY       NOT AVBL
BUOY 51028       NOT AVBL
$$

......................KEY........................................
  SKY/WX - SKY CONDITIONS/PRESENT WEATHER
  TMP    - TEMPERATURE IN FAHRENHEIT
  DWPT   - DEWPOINT IN FAHRENHEIT
  RH     - RELATIVE HUMIDITY IN PERCENT
  WIND   - DIRECTION AND SPEED /MPH FOR ISLANDS...KTS FOR BUOYS/
  PRES   - MEAN SEA LEVEL PRESSURE IN INCHES OF HG
  VSB    - VISIBILITY IN MILES
  HX     - HEAT INDEX
  WCI    - WIND CHILL INDEX
  VRB    - VARIABLE WIND DIRECTION
  N/A    - NOT AVAILABLE



USA.gov is the U.S. government's official web portal to all federal, state and local government web resources and services.